"read_dt","SO2 (ppb)","flags","PMT voltage (V)","lamp voltage (V)","lamp intensity (Hz)","internal temp (C)","react chamber temp (C)","sample flow (l/min)","pres (mmHg)","SO2 bkg (ppb)","SO2 coefficient"
2017-03-13 00:00:00,1805E-3,5C000400,-0724,0839,12108,029.4,045.5,0.219,755.3,01.16,0.508
2017-03-13 00:01:00,1683E-3,5C000400,-0724,0839,12038,029.4,045.5,0.219,755.3,01.16,0.508
2017-03-13 00:02:00,1662E-3,5C000400,-0724,0839,12080,029.5,045.5,0.219,755.3,01.16,0.508
2017-03-13 00:03:00,1775E-3,5C000400,-0724,0839,12070,029.5,045.5,0.219,755.3,01.16,0.508
2017-03-13 00:04:00,1743E-3,5C000400,-0724,0839,12066,029.6,045.5,0.219,755.3,01.16,0.508
2017-03-13 00:05:00,1780E-3,5C000400,-0724,0839,12073,029.6,045.5,0.219,755.3,01.16,0.508
2017-03-13 00:06:00,1676E-3,5C000400,-0724,0840,11993,029.6,045.5,0.219,755.3,01.16,0.508
2017-03-13 00:07:00,1780E-3,5C000400,-0724,0839,12066,029.7,045.5,0.219,755.3,01.16,0.508
2017-03-13 00:08:00,1642E-3,5C000400,-0724,0839,12002,029.7,045.5,0.219,755.3,01.16,0.508
2017-03-13 00:09:00,1656E-3,5C000400,-0724,0840,11888,029.7,045.5,0.218,755.3,01.16,0.508
2017-03-13 00:10:00,1747E-3,5C000400,-0724,0840,12082,029.6,045.5,0.218,755.3,01.16,0.508
2017-03-13 00:11:00,1631E-3,5C000400,-0724,0839,12094,029.5,045.5,0.218,755.3,01.16,0.508
2017-03-13 00:12:00,1717E-3,5C000400,-0724,0840,12126,029.4,045.5,0.219,755.4,01.16,0.508
2017-03-13 00:13:00,1798E-3,5C000400,-0724,0839,12047,029.2,045.5,0.218,755.4,01.16,0.508
2017-03-13 00:14:00,1827E-3,5C000400,-0724,0839,12008,029.1,045.5,0.219,755.4,01.16,0.508
2017-03-13 00:15:00,1801E-3,5C000400,-0724,0839,11989,029.0,045.5,0.219,755.4,01.16,0.508
2017-03-13 00:16:00,1771E-3,5C000400,-0724,0839,12136,028.9,045.5,0.218,755.4,01.16,0.508
2017-03-13 00:17:00,1826E-3,5C000400,-0724,0838,11987,028.9,045.5,0.219,755.4,01.16,0.508
2017-03-13 00:18:00,1661E-3,5C000400,-0724,0839,11897,028.8,045.5,0.219,755.4,01.16,0.508
2017-03-13 00:19:00,1752E-3,5C000400,-0724,0840,11973,028.7,045.5,0.219,755.4,01.16,0.508
2017-03-13 00:20:00,1661E-3,5C000400,-0724,0839,12033,028.6,045.5,0.219,755.5,01.16,0.508
2017-03-13 00:21:00,1777E-3,5C000400,-0724,0838,11900,028.6,045.5,0.220,755.5,01.16,0.508
2017-03-13 00:22:00,1780E-3,5C000400,-0724,0839,12019,028.6,045.5,0.219,755.5,01.16,0.508
2017-03-13 00:23:00,1760E-3,5C000400,-0724,0839,12078,028.6,045.5,0.220,755.5,01.16,0.508
2017-03-13 00:24:00,1777E-3,5C000400,-0724,0839,12163,028.5,045.5,0.220,755.6,01.16,0.508
2017-03-13 00:25:00,1745E-3,5C000400,-0724,0839,12057,028.5,045.5,0.220,755.6,01.16,0.508
2017-03-13 00:26:00,1785E-3,5C000400,-0724,0839,12067,028.4,045.5,0.220,755.6,01.16,0.508
2017-03-13 00:27:00,1791E-3,5C000400,-0724,0839,12011,028.4,045.5,0.220,755.6,01.16,0.508
2017-03-13 00:28:00,1731E-3,5C000400,-0724,0839,12028,028.3,045.5,0.220,755.6,01.16,0.508
2017-03-13 00:29:00,1835E-3,5C000400,-0724,0838,11949,028.2,045.4,0.220,755.6,01.16,0.508
2017-03-13 00:30:00,1667E-3,5C000400,-0724,0839,11991,028.2,045.5,0.221,755.7,01.16,0.508
2017-03-13 00:31:00,1825E-3,5C000400,-0724,0838,12107,028.3,045.4,0.220,755.7,01.16,0.508
2017-03-13 00:32:00,1707E-3,5C000400,-0724,0839,11971,028.3,045.5,0.221,755.7,01.16,0.508
2017-03-13 00:33:00,1681E-3,5C000400,-0724,0839,12088,028.4,045.5,0.221,755.6,01.16,0.508
2017-03-13 00:34:00,1723E-3,5C000400,-0724,0839,11851,028.5,045.5,0.221,755.6,01.16,0.508
2017-03-13 00:35:00,1835E-3,5C000400,-0724,0839,12084,028.6,045.5,0.221,755.6,01.16,0.508
2017-03-13 00:36:00,1717E-3,5C000400,-0724,0839,12069,028.6,045.5,0.221,755.6,01.16,0.508
2017-03-13 00:37:00,1721E-3,5C000400,-0724,0839,12084,028.7,045.5,0.221,755.6,01.16,0.508
2017-03-13 00:38:00,1721E-3,5C000400,-0724,0839,12045,028.8,045.5,0.220,755.6,01.16,0.508
2017-03-13 00:39:00,1662E-3,5C000400,-0724,0840,12054,028.9,045.5,0.220,755.6,01.16,0.508
2017-03-13 00:40:00,1899E-3,5C000400,-0724,0840,12015,028.9,045.5,0.220,755.6,01.16,0.508
2017-03-13 00:41:00,1717E-3,5C000400,-0724,0838,12027,029.0,045.5,0.220,755.6,01.16,0.508
2017-03-13 00:42:00,1801E-3,5C000400,-0724,0839,12022,029.1,045.5,0.220,755.6,01.16,0.508
2017-03-13 00:43:00,1762E-3,5C000400,-0724,0840,11931,029.1,045.5,0.220,755.6,01.16,0.508
2017-03-13 00:44:00,1811E-3,5C000400,-0724,0839,12035,029.2,045.5,0.220,755.6,01.16,0.508
2017-03-13 00:45:00,1750E-3,5C000400,-0724,0840,12037,029.3,045.5,0.220,755.6,01.16,0.508
2017-03-13 00:46:00,1769E-3,5C000400,-0724,0840,12024,029.3,045.5,0.220,755.6,01.16,0.508
2017-03-13 00:47:00,1708E-3,5C000400,-0724,0839,11969,029.3,045.5,0.219,755.6,01.16,0.508
2017-03-13 00:48:00,1605E-3,5C000400,-0724,0839,11937,029.3,045.5,0.219,755.6,01.16,0.508
2017-03-13 00:49:00,1602E-3,5C000400,-0724,0839,11980,029.2,045.5,0.219,755.6,01.16,0.508
2017-03-13 00:50:00,1697E-3,5C000400,-0724,0839,12028,029.1,045.5,0.219,755.6,01.16,0.508
2017-03-13 00:51:00,1802E-3,5C000400,-0724,0839,11891,028.9,045.5,0.219,755.6,01.16,0.508
2017-03-13 00:52:00,1796E-3,5C000400,-0724,0839,12222,028.8,045.5,0.219,755.6,01.16,0.508
2017-03-13 00:53:00,1685E-3,5C000400,-0724,0839,11889,028.7,045.5,0.220,755.6,01.16,0.508
2017-03-13 00:54:00,1886E-3,5C000400,-0724,0839,11967,028.6,045.5,0.220,755.5,01.16,0.508
2017-03-13 00:55:00,1780E-3,5C000400,-0724,0838,12013,028.5,045.5,0.219,755.5,01.16,0.508
2017-03-13 00:56:00,1681E-3,5C000400,-0724,0839,12150,028.6,045.5,0.220,755.5,01.16,0.508
2017-03-13 00:57:00,1814E-3,5C000400,-0724,0839,12152,028.6,045.5,0.220,755.5,01.16,0.508
2017-03-13 00:58:00,1732E-3,5C000400,-0724,0839,11957,028.7,045.5,0.220,755.6,01.16,0.508
2017-03-13 00:59:00,1807E-3,5C000400,-0724,0839,12126,028.7,045.5,0.220,755.6,01.16,0.508
2017-03-13 01:00:00,1826E-3,5C000400,-0724,0839,11992,028.8,045.5,0.220,755.6,01.16,0.508
2017-03-13 01:01:00,1818E-3,5C000400,-0724,0839,11982,028.9,045.5,0.220,755.6,01.16,0.508
2017-03-13 01:02:00,1681E-3,5C000400,-0724,0840,11804,028.9,045.5,0.220,755.6,01.16,0.508
2017-03-13 01:03:00,1709E-3,5C000400,-0724,0839,12042,029.0,045.5,0.220,755.6,01.16,0.508
2017-03-13 01:04:00,1732E-3,5C000400,-0724,0839,11976,029.0,045.5,0.220,755.6,01.16,0.508
2017-03-13 01:05:00,1775E-3,5C000400,-0724,0839,11966,029.0,045.5,0.220,755.6,01.16,0.508
2017-03-13 01:06:00,1816E-3,5C000400,-0724,0839,12070,029.0,045.5,0.220,755.6,01.16,0.508
2017-03-13 01:07:00,1759E-3,5C000400,-0724,0840,12071,029.0,045.5,0.220,755.6,01.16,0.508
2017-03-13 01:08:00,1742E-3,5C000400,-0724,0840,12166,028.9,045.5,0.219,755.6,01.16,0.508
2017-03-13 01:09:00,1825E-3,5C000400,-0724,0839,12025,028.7,045.5,0.220,755.6,01.16,0.508
2017-03-13 01:10:00,1872E-3,5C000400,-0724,0839,11895,028.6,045.5,0.220,755.6,01.16,0.508
2017-03-13 01:11:00,1900E-3,5C000400,-0724,0839,12090,028.5,045.5,0.220,755.6,01.16,0.508
2017-03-13 01:12:00,1842E-3,5C000400,-0724,0838,11960,028.4,045.5,0.220,755.6,01.16,0.508
2017-03-13 01:13:00,1753E-3,5C000400,-0724,0838,12117,028.4,045.5,0.220,755.6,01.16,0.508
2017-03-13 01:14:00,1734E-3,5C000400,-0724,0838,11988,028.3,045.5,0.220,755.6,01.16,0.508
2017-03-13 01:15:00,1799E-3,5C000400,-0724,0838,11998,028.2,045.5,0.220,755.6,01.16,0.508
2017-03-13 01:16:00,1619E-3,5C000400,-0724,0839,12005,028.3,045.5,0.220,755.6,01.16,0.508
2017-03-13 01:17:00,1782E-3,5C000400,-0724,0838,11992,028.3,045.5,0.220,755.6,01.16,0.508
2017-03-13 01:18:00,1803E-3,5C000400,-0724,0839,12133,028.4,045.5,0.221,755.6,01.16,0.508
2017-03-13 01:19:00,1753E-3,5C000400,-0724,0839,12059,028.5,045.5,0.221,755.6,01.16,0.508
2017-03-13 01:20:00,1758E-3,5C000400,-0724,0839,12055,028.5,045.5,0.220,755.6,01.16,0.508
2017-03-13 01:21:00,1869E-3,5C000400,-0724,0839,12111,028.6,045.4,0.220,755.6,01.16,0.508
2017-03-13 01:22:00,1727E-3,5C000400,-0724,0839,12013,028.7,045.5,0.220,755.6,01.16,0.508
2017-03-13 01:23:00,1746E-3,5C000400,-0724,0839,12084,028.7,045.5,0.220,755.7,01.16,0.508
2017-03-13 01:24:00,1609E-3,5C000400,-0724,0839,12100,028.8,045.5,0.221,755.7,01.16,0.508
2017-03-13 01:25:00,1725E-3,5C000400,-0724,0839,12116,028.9,045.5,0.221,755.7,01.16,0.508
2017-03-13 01:26:00,1679E-3,5C000400,-0724,0838,12048,028.9,045.5,0.220,755.6,01.16,0.508
2017-03-13 01:27:00,1769E-3,5C000400,-0724,0839,12105,028.9,045.5,0.220,755.7,01.16,0.508
2017-03-13 01:28:00,1818E-3,5C000400,-0724,0839,12064,028.8,045.5,0.220,755.7,01.16,0.508
2017-03-13 01:29:00,1643E-3,5C000400,-0724,0839,11969,028.8,045.5,0.220,755.7,01.16,0.508
2017-03-13 01:30:00,1799E-3,5C000400,-0724,0840,12093,028.6,045.5,0.220,755.7,01.16,0.508
2017-03-13 01:31:00,1709E-3,5C000400,-0724,0839,12047,028.5,045.5,0.220,755.7,01.16,0.508
2017-03-13 01:32:00,1730E-3,5C000400,-0724,0839,12171,028.4,045.5,0.220,755.7,01.16,0.508
2017-03-13 01:33:00,1725E-3,5C000400,-0724,0839,12009,028.3,045.5,0.220,755.7,01.16,0.508
2017-03-13 01:34:00,1707E-3,5C000400,-0724,0839,12096,028.3,045.5,0.220,755.7,01.16,0.508
2017-03-13 01:35:00,1791E-3,5C000400,-0724,0838,12078,028.2,045.5,0.221,755.7,01.16,0.508
2017-03-13 01:36:00,1907E-3,5C000400,-0724,0838,12092,028.2,045.5,0.221,755.7,01.16,0.508
2017-03-13 01:37:00,1814E-3,5C000400,-0724,0839,11961,028.1,045.5,0.221,755.7,01.16,0.508
2017-03-13 01:38:00,1705E-3,5C000400,-0724,0839,12052,028.1,045.4,0.221,755.7,01.16,0.508
2017-03-13 01:39:00,1787E-3,5C000400,-0724,0839,12006,028.1,045.5,0.221,755.7,01.16,0.508
2017-03-13 01:40:00,1812E-3,5C000400,-0724,0839,12222,028.0,045.5,0.221,755.7,01.16,0.508
2017-03-13 01:41:00,1830E-3,5C000400,-0724,0838,11975,027.9,045.5,0.221,755.7,01.16,0.508
2017-03-13 01:42:00,1606E-3,5C000400,-0724,0839,12010,027.9,045.4,0.221,755.7,01.16,0.508
2017-03-13 01:43:00,1684E-3,5C000400,-0724,0838,12161,028.0,045.5,0.221,755.7,01.16,0.508
2017-03-13 01:44:00,1643E-3,5C000400,-0724,0838,11985,028.1,045.5,0.221,755.7,01.16,0.508
2017-03-13 01:45:00,1656E-3,5C000400,-0724,0839,11932,028.2,045.5,0.221,755.7,01.16,0.508
2017-03-13 01:46:00,1704E-3,5C000400,-0724,0839,12068,028.3,045.5,0.221,755.7,01.16,0.508
2017-03-13 01:47:00,1823E-3,5C000400,-0724,0839,12098,028.3,045.5,0.221,755.7,01.16,0.508
2017-03-13 01:48:00,1774E-3,5C000400,-0724,0839,12102,028.4,045.5,0.221,755.6,01.16,0.508
2017-03-13 01:49:00,1711E-3,5C000400,-0724,0838,12075,028.5,045.5,0.221,755.6,01.16,0.508
2017-03-13 01:50:00,1716E-3,5C000400,-0724,0840,12140,028.5,045.5,0.221,755.6,01.16,0.508
2017-03-13 01:51:00,1826E-3,5C000400,-0724,0839,12076,028.4,045.5,0.221,755.6,01.16,0.508
2017-03-13 01:52:00,1798E-3,5C000400,-0724,0838,12144,028.4,045.5,0.221,755.6,01.16,0.508
2017-03-13 01:53:00,1853E-3,5C000400,-0724,0839,12014,028.2,045.5,0.221,755.6,01.16,0.508
2017-03-13 01:54:00,1823E-3,5C000400,-0724,0839,12023,028.1,045.5,0.221,755.7,01.16,0.508
2017-03-13 01:55:00,1718E-3,5C000400,-0724,0839,11953,028.1,045.4,0.221,755.7,01.16,0.508
2017-03-13 01:56:00,1726E-3,5C000400,-0724,0838,12162,028.0,045.4,0.221,755.6,01.16,0.508
2017-03-13 01:57:00,1771E-3,5C000400,-0724,0839,12157,028.0,045.4,0.221,755.6,01.16,0.508
2017-03-13 01:58:00,1652E-3,5C000400,-0724,0838,11965,028.0,045.5,0.221,755.6,01.16,0.508
2017-03-13 01:59:00,1705E-3,5C000400,-0724,0839,11982,028.0,045.5,0.221,755.6,01.16,0.508
2017-03-13 02:00:00,1738E-3,5C000400,-0724,0839,11954,028.0,045.5,0.222,755.7,01.16,0.508
2017-03-13 02:01:00,1825E-3,5C000400,-0724,0838,12036,027.9,045.5,0.221,755.7,01.16,0.508
2017-03-13 02:02:00,1746E-3,5C000400,-0724,0839,12013,027.8,045.5,0.221,755.7,01.16,0.508
2017-03-13 02:03:00,1752E-3,5C000400,-0724,0838,11844,027.8,045.4,0.221,755.7,01.16,0.508
2017-03-13 02:04:00,1756E-3,5C000400,-0724,0839,12107,027.8,045.4,0.222,755.7,01.16,0.508
2017-03-13 02:05:00,1841E-3,5C000400,-0724,0839,11914,027.8,045.5,0.222,755.7,01.16,0.508
2017-03-13 02:06:00,1662E-3,5C000400,-0724,0839,12043,027.7,045.5,0.221,755.8,01.16,0.508
2017-03-13 02:07:00,1761E-3,5C000400,-0724,0839,12075,027.7,045.4,0.221,755.8,01.16,0.508
2017-03-13 02:08:00,1752E-3,5C000400,-0724,0839,12038,027.7,045.4,0.222,755.8,01.16,0.508
2017-03-13 02:09:00,1676E-3,5C000400,-0724,0839,12040,027.7,045.5,0.222,755.8,01.16,0.508
2017-03-13 02:10:00,1937E-3,5C000400,-0724,0838,12143,027.7,045.4,0.222,755.7,01.16,0.508
2017-03-13 02:11:00,1811E-3,5C000400,-0724,0839,12048,027.6,045.4,0.222,755.8,01.16,0.508
2017-03-13 02:12:00,1673E-3,5C000400,-0724,0839,12106,027.6,045.5,0.222,755.7,01.16,0.508
2017-03-13 02:13:00,1667E-3,5C000400,-0724,0839,12031,027.6,045.5,0.222,755.7,01.16,0.508
2017-03-13 02:14:00,1764E-3,5C000400,-0724,0839,11967,027.6,045.5,0.222,755.7,01.16,0.508
2017-03-13 02:15:00,1775E-3,5C000400,-0724,0838,11973,027.6,045.4,0.222,755.7,01.16,0.508
2017-03-13 02:16:00,1756E-3,5C000400,-0724,0839,12208,027.6,045.4,0.222,755.7,01.16,0.508
2017-03-13 02:17:00,1781E-3,5C000400,-0724,0839,12185,027.6,045.4,0.222,755.7,01.16,0.508
2017-03-13 02:18:00,1713E-3,5C000400,-0724,0839,12041,027.6,045.4,0.222,755.7,01.16,0.508
2017-03-13 02:19:00,1680E-3,5C000400,-0724,0840,12029,027.5,045.4,0.222,755.7,01.16,0.508
2017-03-13 02:20:00,1747E-3,5C000400,-0724,0839,11986,027.5,045.5,0.222,755.7,01.16,0.508
2017-03-13 02:21:00,1774E-3,5C000400,-0724,0839,11983,027.6,045.4,0.223,755.8,01.16,0.508
2017-03-13 02:22:00,1805E-3,5C000400,-0724,0839,12101,027.5,045.4,0.222,755.8,01.16,0.508
2017-03-13 02:23:00,1738E-3,5C000400,-0724,0838,12031,027.5,045.4,0.222,755.8,01.16,0.508
2017-03-13 02:24:00,1662E-3,5C000400,-0724,0839,11974,027.5,045.4,0.222,755.8,01.16,0.508
2017-03-13 02:25:00,1715E-3,5C000400,-0724,0838,11967,027.6,045.4,0.222,755.8,01.16,0.508
2017-03-13 02:26:00,1727E-3,5C000400,-0724,0839,12072,027.7,045.4,0.223,755.8,01.16,0.508
2017-03-13 02:27:00,1719E-3,5C000400,-0724,0839,12027,027.8,045.5,0.223,755.8,01.16,0.508
2017-03-13 02:28:00,1664E-3,5C000400,-0724,0838,12091,027.9,045.4,0.222,755.8,01.16,0.508
2017-03-13 02:29:00,1822E-3,5C000400,-0724,0839,12059,028.0,045.4,0.222,755.7,01.16,0.508
2017-03-13 02:30:00,1659E-3,5C000400,-0724,0839,12115,028.2,045.5,0.222,755.7,01.16,0.508
2017-03-13 02:31:00,1603E-3,5C000400,-0724,0839,12042,028.2,045.5,0.222,755.7,01.16,0.508
2017-03-13 02:32:00,1749E-3,5C000400,-0724,0839,12024,028.3,045.5,0.222,755.7,01.16,0.508
2017-03-13 02:33:00,1711E-3,5C000400,-0724,0839,12050,028.3,045.5,0.222,755.7,01.16,0.508
2017-03-13 02:34:00,1842E-3,5C000400,-0724,0840,12022,028.3,045.5,0.222,755.7,01.16,0.508
2017-03-13 02:35:00,1694E-3,5C000400,-0724,0839,11969,028.2,045.4,0.222,755.7,01.16,0.508
2017-03-13 02:36:00,1814E-3,5C000400,-0724,0839,12085,028.1,045.5,0.222,755.7,01.16,0.508
2017-03-13 02:37:00,1689E-3,5C000400,-0724,0839,11926,028.0,045.5,0.221,755.7,01.16,0.508
2017-03-13 02:38:00,1753E-3,5C000400,-0724,0839,12076,028.0,045.4,0.221,755.7,01.16,0.508
2017-03-13 02:39:00,1778E-3,5C000400,-0724,0838,12032,027.9,045.4,0.222,755.8,01.16,0.508
2017-03-13 02:40:00,1888E-3,5C000400,-0724,0839,12126,027.9,045.4,0.221,755.8,01.16,0.508
2017-03-13 02:41:00,1821E-3,5C000400,-0724,0839,12170,027.9,045.4,0.221,755.8,01.16,0.508
2017-03-13 02:42:00,1827E-3,5C000400,-0724,0839,11775,027.9,045.4,0.222,755.8,01.16,0.508
2017-03-13 02:43:00,1692E-3,5C000400,-0724,0839,11907,027.8,045.5,0.222,755.8,01.16,0.508
2017-03-13 02:44:00,1626E-3,5C000400,-0724,0838,12106,027.8,045.4,0.222,755.8,01.16,0.508
2017-03-13 02:45:00,1612E-3,5C000400,-0724,0838,12107,027.7,045.5,0.222,755.8,01.16,0.508
2017-03-13 02:46:00,1720E-3,5C000400,-0724,0839,12095,027.8,045.5,0.222,755.8,01.16,0.508
2017-03-13 02:47:00,1703E-3,5C000400,-0724,0839,12071,027.7,045.4,0.222,755.8,01.16,0.508
2017-03-13 02:48:00,1720E-3,5C000400,-0724,0838,11983,027.7,045.4,0.222,755.8,01.16,0.508
2017-03-13 02:49:00,1752E-3,5C000400,-0724,0838,12006,027.6,045.4,0.222,755.8,01.16,0.508
2017-03-13 02:50:00,1935E-3,5C000400,-0724,0838,11982,027.6,045.4,0.222,755.8,01.16,0.508
2017-03-13 02:51:00,1769E-3,5C000400,-0724,0839,11976,027.7,045.4,0.222,755.8,01.16,0.508
2017-03-13 02:52:00,1822E-3,5C000400,-0724,0839,12062,027.7,045.4,0.222,755.7,01.16,0.508
2017-03-13 02:53:00,1725E-3,5C000400,-0724,0839,12008,027.8,045.5,0.222,755.7,01.16,0.508
2017-03-13 02:54:00,1683E-3,5C000400,-0724,0838,12005,027.9,045.5,0.222,755.7,01.16,0.508
2017-03-13 02:55:00,1755E-3,5C000400,-0724,0839,12064,028.0,045.5,0.222,755.7,01.16,0.508
2017-03-13 02:56:00,1769E-3,5C000400,-0724,0839,12150,028.1,045.5,0.222,755.7,01.16,0.508
2017-03-13 02:57:00,1857E-3,5C000400,-0724,0839,11978,028.2,045.5,0.222,755.7,01.16,0.508
2017-03-13 02:58:00,1770E-3,5C000400,-0724,0838,12043,028.3,045.5,0.222,755.7,01.16,0.508
2017-03-13 02:59:00,1696E-3,5C000400,-0724,0839,12063,028.4,045.5,0.222,755.7,01.16,0.508
2017-03-13 03:00:00,1713E-3,5C000400,-0724,0839,11952,028.4,045.4,0.222,755.7,01.16,0.508
2017-03-13 03:01:00,1742E-3,5C000400,-0724,0839,11949,028.4,045.5,0.221,755.7,01.16,0.508
2017-03-13 03:02:00,1858E-3,5C000400,-0724,0839,12035,028.3,045.4,0.221,755.7,01.16,0.508
2017-03-13 03:03:00,1623E-3,5C000400,-0724,0839,12122,028.2,045.4,0.221,755.7,01.16,0.508
2017-03-13 03:04:00,1819E-3,5C000400,-0724,0839,12064,028.1,045.4,0.221,755.8,01.16,0.508
2017-03-13 03:05:00,1670E-3,5C000400,-0724,0839,12033,028.0,045.4,0.221,755.7,01.16,0.508
2017-03-13 03:06:00,1863E-3,5C000400,-0724,0839,12124,028.0,045.5,0.221,755.7,01.16,0.508
2017-03-13 03:07:00,1866E-3,5C000400,-0724,0838,11979,027.9,045.5,0.221,755.7,01.16,0.508
2017-03-13 03:08:00,1627E-3,5C000400,-0724,0838,12143,027.9,045.4,0.221,755.7,01.16,0.508
2017-03-13 03:09:00,1755E-3,5C000400,-0724,0839,11899,027.9,045.5,0.222,755.7,01.16,0.508
2017-03-13 03:10:00,1782E-3,5C000400,-0724,0839,12120,027.9,045.5,0.222,755.7,01.16,0.508
2017-03-13 03:11:00,1721E-3,5C000400,-0724,0838,12179,027.8,045.5,0.221,755.7,01.16,0.508
2017-03-13 03:12:00,1789E-3,5C000400,-0724,0839,12039,027.8,045.5,0.222,755.7,01.16,0.508
2017-03-13 03:13:00,1693E-3,5C000400,-0724,0839,12099,027.7,045.4,0.222,755.7,01.16,0.508
2017-03-13 03:14:00,1683E-3,5C000400,-0724,0838,12054,027.7,045.4,0.222,755.7,01.16,0.508
2017-03-13 03:15:00,1983E-3,5C000400,-0724,0839,11959,027.7,045.5,0.222,755.7,01.16,0.508
2017-03-13 03:16:00,1787E-3,5C000400,-0724,0838,11988,027.7,045.5,0.222,755.6,01.16,0.508
2017-03-13 03:17:00,1748E-3,5C000400,-0724,0839,12066,027.6,045.4,0.222,755.7,01.16,0.508
2017-03-13 03:18:00,1700E-3,5C000400,-0724,0839,12231,027.6,045.4,0.222,755.7,01.16,0.508
2017-03-13 03:19:00,1800E-3,5C000400,-0724,0838,12021,027.6,045.5,0.222,755.7,01.16,0.508
2017-03-13 03:20:00,1847E-3,5C000400,-0724,0839,12105,027.5,045.5,0.222,755.7,01.16,0.508
2017-03-13 03:21:00,1707E-3,5C000400,-0724,0839,12045,027.5,045.4,0.222,755.7,01.16,0.508
2017-03-13 03:22:00,1574E-3,5C000400,-0724,0840,12017,027.5,045.4,0.222,755.6,01.16,0.508
2017-03-13 03:23:00,1741E-3,5C000400,-0724,0838,12086,027.5,045.4,0.222,755.6,01.16,0.508
2017-03-13 03:24:00,1772E-3,5C000400,-0724,0839,12086,027.5,045.4,0.222,755.6,01.16,0.508
2017-03-13 03:25:00,1835E-3,5C000400,-0724,0838,12137,027.5,045.5,0.222,755.6,01.16,0.508
2017-03-13 03:26:00,1795E-3,5C000400,-0724,0839,11983,027.5,045.4,0.222,755.6,01.16,0.508
2017-03-13 03:27:00,1755E-3,5C000400,-0724,0839,12078,027.5,045.4,0.222,755.6,01.16,0.508
2017-03-13 03:28:00,1830E-3,5C000400,-0724,0839,12046,027.4,045.4,0.223,755.6,01.16,0.508
2017-03-13 03:29:00,1693E-3,5C000400,-0724,0839,12198,027.4,045.4,0.223,755.6,01.16,0.508
2017-03-13 03:30:00,1744E-3,5C000400,-0724,0839,12045,027.5,045.5,0.222,755.6,01.16,0.508
2017-03-13 03:31:00,1700E-3,5C000400,-0724,0838,11997,027.4,045.4,0.222,755.6,01.16,0.508
2017-03-13 03:32:00,1694E-3,5C000400,-0724,0839,12101,027.4,045.4,0.223,755.6,01.16,0.508
2017-03-13 03:33:00,1815E-3,5C000400,-0724,0840,12153,027.4,045.4,0.223,755.7,01.16,0.508
2017-03-13 03:34:00,1814E-3,5C000400,-0724,0838,12015,027.4,045.4,0.223,755.7,01.16,0.508
2017-03-13 03:35:00,1777E-3,5C000400,-0724,0839,12071,027.4,045.4,0.223,755.6,01.16,0.508
2017-03-13 03:36:00,1790E-3,5C000400,-0724,0839,12060,027.4,045.4,0.223,755.7,01.16,0.508
2017-03-13 03:37:00,1745E-3,5C000400,-0724,0838,12116,027.4,045.5,0.223,755.6,01.16,0.508
2017-03-13 03:38:00,1829E-3,5C000400,-0724,0839,12070,027.4,045.4,0.223,755.7,01.16,0.508
2017-03-13 03:39:00,1722E-3,5C000400,-0724,0838,11954,027.4,045.4,0.223,755.7,01.16,0.508
2017-03-13 03:40:00,1739E-3,5C000400,-0724,0839,12152,027.4,045.5,0.222,755.7,01.16,0.508
2017-03-13 03:41:00,1665E-3,5C000400,-0724,0838,11892,027.4,045.5,0.223,755.7,01.16,0.508
2017-03-13 03:42:00,1747E-3,5C000400,-0724,0839,11998,027.4,045.4,0.223,755.7,01.16,0.508
2017-03-13 03:43:00,1773E-3,5C000400,-0724,0839,12070,027.4,045.4,0.223,755.7,01.16,0.508
2017-03-13 03:44:00,1655E-3,5C000400,-0724,0838,12083,027.3,045.4,0.223,755.7,01.16,0.508
2017-03-13 03:45:00,1727E-3,5C000400,-0724,0838,12134,027.4,045.4,0.223,755.7,01.16,0.508
2017-03-13 03:46:00,1680E-3,5C000400,-0724,0839,12103,027.4,045.4,0.223,755.7,01.16,0.508
2017-03-13 03:47:00,1694E-3,5C000400,-0724,0838,12111,027.4,045.5,0.223,755.7,01.16,0.508
2017-03-13 03:48:00,1843E-3,5C000400,-0724,0837,12036,027.4,045.4,0.223,755.7,01.16,0.508
2017-03-13 03:49:00,1600E-3,5C000400,-0724,0839,12024,027.4,045.4,0.223,755.7,01.16,0.508
2017-03-13 03:50:00,1796E-3,5C000400,-0724,0839,11942,027.3,045.4,0.223,755.7,01.16,0.508
2017-03-13 03:51:00,1889E-3,5C000400,-0724,0838,12127,027.3,045.4,0.223,755.7,01.16,0.508
2017-03-13 03:52:00,1799E-3,5C000400,-0724,0838,12097,027.3,045.4,0.223,755.7,01.16,0.508
2017-03-13 03:53:00,1880E-3,5C000400,-0724,0839,12007,027.4,045.4,0.223,755.7,01.16,0.508
2017-03-13 03:54:00,1640E-3,5C000400,-0724,0838,11936,027.4,045.4,0.223,755.7,01.16,0.508
2017-03-13 03:55:00,1671E-3,5C000400,-0724,0839,12039,027.4,045.4,0.223,755.7,01.16,0.508
2017-03-13 03:56:00,1893E-3,5C000400,-0724,0838,11937,027.3,045.4,0.223,755.7,01.16,0.508
2017-03-13 03:57:00,1770E-3,5C000400,-0724,0839,12062,027.3,045.4,0.223,755.7,01.16,0.508
2017-03-13 03:58:00,1724E-3,5C000400,-0724,0840,11962,027.4,045.4,0.223,755.7,01.16,0.508
2017-03-13 03:59:00,1639E-3,5C000400,-0724,0839,12136,027.4,045.4,0.223,755.7,01.16,0.508
2017-03-13 04:00:00,1605E-3,5C000400,-0724,0838,12115,027.3,045.5,0.223,755.7,01.16,0.508
2017-03-13 04:01:00,1990E-3,5C000400,-0724,0839,12095,027.3,045.4,0.223,755.7,01.16,0.508
2017-03-13 04:02:00,1699E-3,5C000400,-0724,0838,12141,027.3,045.4,0.223,755.7,01.16,0.508
2017-03-13 04:03:00,1665E-3,5C000400,-0724,0838,12082,027.4,045.4,0.223,755.7,01.16,0.508
2017-03-13 04:04:00,1695E-3,5C000400,-0724,0839,11968,027.3,045.4,0.223,755.7,01.16,0.508
2017-03-13 04:05:00,1786E-3,5C000400,-0724,0838,11983,027.3,045.4,0.223,755.8,01.16,0.508
2017-03-13 04:06:00,1751E-3,5C000400,-0724,0839,11968,027.3,045.4,0.223,755.8,01.16,0.508
2017-03-13 04:07:00,1856E-3,5C000400,-0724,0838,12071,027.3,045.4,0.223,755.8,01.16,0.508
2017-03-13 04:08:00,1649E-3,5C000400,-0724,0839,12138,027.3,045.4,0.223,755.8,01.16,0.508
2017-03-13 04:09:00,1698E-3,5C000400,-0724,0839,12163,027.3,045.4,0.223,755.8,01.16,0.508
2017-03-13 04:10:00,1745E-3,5C000400,-0724,0838,12150,027.3,045.4,0.223,755.8,01.16,0.508
2017-03-13 04:11:00,1684E-3,5C000400,-0724,0838,12056,027.3,045.4,0.223,755.8,01.16,0.508
2017-03-13 04:12:00,1630E-3,5C000400,-0724,0839,12158,027.3,045.4,0.223,755.8,01.16,0.508
2017-03-13 04:13:00,1861E-3,5C000400,-0724,0838,12152,027.3,045.5,0.223,755.8,01.16,0.508
2017-03-13 04:14:00,1781E-3,5C000400,-0724,0839,11970,027.4,045.4,0.223,755.8,01.16,0.508
2017-03-13 04:15:00,1775E-3,5C000400,-0724,0838,12009,027.3,045.4,0.223,755.8,01.16,0.508
2017-03-13 04:16:00,1578E-3,5C000400,-0724,0839,11931,027.3,045.4,0.223,755.8,01.16,0.508
2017-03-13 04:17:00,1765E-3,5C000400,-0724,0838,11941,027.3,045.5,0.223,755.9,01.16,0.508
2017-03-13 04:18:00,1783E-3,5C000400,-0724,0838,12033,027.3,045.5,0.223,755.9,01.16,0.508
2017-03-13 04:19:00,1750E-3,5C000400,-0724,0838,11912,027.3,045.4,0.223,755.9,01.16,0.508
2017-03-13 04:20:00,1702E-3,5C000400,-0724,0839,12042,027.3,045.4,0.223,755.9,01.16,0.508